カタログに戻る

STARLINK-5300

運用中通信VLEO
NORAD 55676·PAYLOAD·🇺🇸 United States

打ち上げ Feb 17, 2023 から Vandenberg Space Force Base

Loading…

次のパス (今後24時間)

TLE

最新Source: CelesTrak SupGP

元期: Sep 15, 2026, 01:35 UTC

1 55676C 23021BA  26258.06645833 -.00028543  00000+0 -23928-2 0  2582
2 55676  70.0031  27.0061 0003008 271.4698  87.7941 14.98332492    18

AllMySatでSTARLINK-5300をリアルタイム追跡

Download on the App Store